Hermiston, OR

10:17 PM PDT on April 28, 2017 (GMT -0700)
Hermiston Municipal

Weather History for KHRI - January, 2013

Change the Weather History Date:

Sunday, January 6, 2013

  Actual Average Record
Temperature  
Mean Temperature 31 °F 34 °F  
Max Temperature 37 °F 41 °F 58 °F (1990)
Min Temperature 25 °F 27 °F -19 °F (2004)
Degree Days  
Heating Degree Days 34    
Moisture  
Dew Point 27 °F    
Average Humidity 87    
Maximum Humidity 100    
Minimum Humidity 67    
Precipitation  
Precipitation 0.00 in 0.05 in 0.54 in (1912)
Month to date precipitation 0.30  
Year to date precipitation 0.30  
Sea Level Pressure  
Sea Level Pressure 30.20 in    
Wind  
Wind Speed 1 mph (South)    
Max Wind Speed 5 mph    
Max Gust Speed -    
Visibility 8 miles    
Events      
T = Trace of Precipitation, MM = Missing Value Source: NWS Daily Summary

Daily Weather History Graph

Daily Weather History Graph

Search for Another Location

Airport or City:

Trip Planner

Search our weather history database for the weather conditions in past years. The results will help you decide how hot, cold, wet, or windy it might be!

Date:

Astronomy

Jan. 06, 2013 Rise Set
Actual Time 7:37 AM PST 4:28 PM PST
Civil Twilight 7:03 AM PST 5:02 PM PST
Nautical Twilight 6:26 AM PST 5:40 PM PST
Astronomical Twilight 5:50 AM PST 6:16 PM PST
Moon 1:51 AM PST (1/6) 12:04 PM PST (1/6)
Length of Visible Light 9h 58m
Length of Day
8h 50m
Waning Crescent, 32% of the Moon is Illuminated
Jan 6
Waning Crescent
Jan 11
New
Jan 18
First Quarter
Jan 26
Full
Feb 3
Last Quarter

Hourly Weather History & Observations

Time (PST) Temp. Windchill Dew Point Humidity Pressure Visibility Wind Dir Wind Speed Gust Speed Precip Events Conditions
12:22 AM 28.4 °F - 26.6 °F 93% 30.25 in 5.0 mi Calm Calm - N/A   Overcast
12:53 AM 28.9 °F - 27.0 °F 92% 30.26 in 5.0 mi Calm Calm - N/A   Overcast
1:53 AM 28.9 °F 23.9 °F 27.0 °F 92% 30.26 in 6.0 mi South 4.6 mph - N/A   Overcast
2:53 AM 28.9 °F 25.2 °F 27.0 °F 92% 30.25 in 6.0 mi SSE 3.5 mph - N/A   Overcast
3:53 AM 28.9 °F 25.2 °F 27.0 °F 92% 30.24 in 6.0 mi SE 3.5 mph - N/A   Overcast
4:53 AM 30.0 °F - 27.0 °F 88% 30.22 in 6.0 mi Calm Calm - N/A   Overcast
5:53 AM 30.0 °F - 28.0 °F 92% 30.22 in 6.0 mi Calm Calm - N/A   Overcast
6:53 AM 25.0 °F 20.7 °F 24.1 °F 96% 30.22 in 7.0 mi SW 3.5 mph - N/A   Clear
7:53 AM 27.0 °F - 26.1 °F 96% 30.24 in 2.5 mi Calm Calm - N/A   Overcast
8:08 AM 26.6 °F - 26.6 °F 100% 30.22 in 3.0 mi Calm Calm - N/A   Overcast
8:53 AM 28.0 °F 24.2 °F 26.1 °F 92% 30.25 in 6.0 mi West 3.5 mph - N/A   Mostly Cloudy
10:53 AM 32.0 °F - 27.0 °F 82% 30.26 in 10.0 mi Calm Calm - N/A   Mostly Cloudy
11:53 AM 34.0 °F - 27.0 °F 75% 30.24 in 10.0 mi Calm Calm - N/A   Clear
12:53 PM 36.0 °F - 28.0 °F 73% 30.20 in 10.0 mi Calm Calm - N/A   Clear
1:53 PM 37.0 °F 34.5 °F 27.0 °F 67% 30.18 in 10.0 mi WSW 3.5 mph - N/A   Clear
2:53 PM 36.0 °F 33.3 °F 28.9 °F 76% 30.18 in 10.0 mi North 3.5 mph - N/A   Clear
3:53 PM 34.0 °F - 28.0 °F 79% 30.19 in 10.0 mi Calm Calm - N/A   Clear
4:53 PM 32.0 °F - 27.0 °F 82% 30.16 in 10.0 mi Calm Calm - N/A   Clear
5:53 PM 30.0 °F - 26.1 °F 85% 30.17 in 10.0 mi Calm Calm - N/A   Clear
6:53 PM 28.9 °F - 27.0 °F 92% 30.17 in 8.0 mi Calm Calm - N/A   Clear
7:53 PM 28.9 °F - 26.1 °F 89% 30.15 in 10.0 mi Calm Calm - N/A   Clear
8:53 PM 28.9 °F - 27.0 °F 92% 30.15 in 9.0 mi Calm Calm - N/A   Clear
9:53 PM 30.0 °F - 26.1 °F 85% 30.15 in 10.0 mi Calm Calm - N/A   Scattered Clouds
10:53 PM 28.9 °F 23.9 °F 26.1 °F 89% 30.12 in 8.0 mi SSE 4.6 mph - N/A   Scattered Clouds
11:53 PM 28.0 °F 24.2 °F 26.1 °F 92% 30.10 in 8.0 mi South 3.5 mph - N/A   Mostly Cloudy